sat.trackr.live / text

‹ back to catalog

R2

NORAD 46913 · 2020-081J

PAYLOAD ACTIVE UNKNOWN

§ Identity

Operator
Country
LTU
Launch date
2020-11-07
Launch site
SRILR
Launch vehicle
Mass (kg)
RCS (m²)

External: N2YO · Heavens-Above · Gunter

§ Orbital elements

Epoch: 2026-05-25T03:24:07.887744Z

Period
94.42 min
Inclination
36.8966°
Eccentricity
0.0006050
Mean motion
15.25057253 rev/d
Perigee alt
486.5 km
Apogee alt
494.8 km
Semi-major
6,868.8 km
B*
2.6728e-4
RAAN
203.2604°
Arg perigee
90.1248°
Mean anomaly
270.0194°
Rev number
30,846

§ Raw data

R21 46913U 20081J   26145.14175796  .00006748  00000+0  26728-3 0  99942 46913  36.8966 203.2604 0006050  90.1248 270.0194 15.25057253308464

JSON: /api/v1/satellites/46913 · /tle

For live sub-satellite position, see the globe view (requires WebGL).

§ Visibility from observer

Set your observer location to see the next 7 days of passes ≥ 10°. The values pass through the URL so the page stays shareable.

No JS? Fill the form by hand. The geolocation button needs JavaScript.

§ Radio — SatNOGS DB

ModeDescriptionDownlinkUplink
FM UHF Unknown 401.050 MHz

1 transmitter · refreshed weekly from db.satnogs.org